This is the latest recevied weather packets stored in our database for station/object PY3MO-11. If no packets are shown the sender has not sent any weather packets the latest 10 day(s).
| Time | Temp. | Humidity | Pressure | Rain* | Wind** | Luminosity | Snow |
|---|---|---|---|---|---|---|---|
| 1778018640 | 19.44° C | 80% | 1019.5 hPa | 0 mm | - | - | - |
| 1778018340 | 19.44° C | 79% | 1019.6 hPa | 0 mm | - | - | - |
| 1778018039 | 19.44° C | 78% | 1019.4 hPa | 0 mm | - | - | - |
| 1778017740 | 19.44° C | 77% | 1019.6 hPa | 0 mm | - | - | - |
| 1778017440 | 20° C | 76% | 1019.4 hPa | 0 mm | - | - | - |
| 1778017140 | 20° C | 75% | 1019.2 hPa | 0 mm | - | - | - |
| 1778016840 | 20.56° C | 75% | 1019.5 hPa | 0 mm | - | - | - |
| 1778016540 | 20.56° C | 74% | 1019.3 hPa | 0 mm | - | - | - |
| 1778016239 | 20.56° C | 73% | 1019.3 hPa | 0 mm | - | - | - |
| 1778015939 | 21.11° C | 72% | 1019.3 hPa | 0 mm | - | - | - |
| 1778015639 | 21.11° C | 71% | 1019.3 hPa | 0 mm | - | - | - |
| 1778015339 | 21.67° C | 70% | 1019.1 hPa | 0 mm | - | - | - |
| 1778015039 | 21.67° C | 69% | 1019.2 hPa | 0 mm | - | - | - |
| 1778014739 | 21.67° C | 68% | 1019.2 hPa | 0 mm | - | - | - |
| 1778014438 | 22.22° C | 67% | 1019.2 hPa | 0 mm | - | - | - |
| 1778014138 | 22.22° C | 66% | 1019.2 hPa | 0 mm | - | - | - |
| 1778013838 | 22.78° C | 61% | 1019.2 hPa | 0 mm | - | - | - |
| 1778013540 | 22.78° C | 60% | 1019.2 hPa | 0 mm | - | - | - |
| 1778013240 | 23.33° C | 60% | 1019.3 hPa | 0 mm | - | - | - |
| 1778012940 | 23.89° C | 58% | 1019 hPa | 0 mm | - | - | - |
| 1778012640 | 23.89° C | 57% | 1019 hPa | 0 mm | - | - | - |
| 1778012339 | 24.44° C | 57% | 1019.2 hPa | 0 mm | - | - | - |
| 1778012039 | 25° C | 55% | 1019.2 hPa | 0 mm | - | - | - |
| 1778011739 | 26.11° C | 53% | 1019.1 hPa | 0 mm | - | - | - |
| 1778011439 | 27.22° C | 51% | 1019 hPa | 0 mm | - | - | - |
* Rain latest hour (hover to see other rain measurements)
** Current wind speed in m/s (hover to see current wind gust speed)